Location: Newark
(33.9035°S, 18.4112°E)
Time: 18:49:17
(UTC+00:00)

STARLINK-1072 - Pass Details

Date: 18 January 2020
Orbit: 349 x 350 km, 53.0° (Epoch: 18 February)

Event Time Altitude Azimuth Distance (km) Brightness Sun altitude
Exits shadow 01:59:44 - 47° (NE) 2,045 6.6 -20.1°
Enters shadow 02:55:21 -75° 306° (NW) 12,653 10.5 -11.2°
Maximum altitude 03:35:11 60° 47° (NE) 410 3.1 -4.2°
